Time,TemperatureF,DewpointF,PressureIn,WindDirection,WindDirectionDegrees,WindSpeedMPH,WindSpeedGustMPH,Humidity,HourlyPrecipIn,Conditions,Clouds,dailyrainin,SolarRadiationWatts/m^2,SoftwareType,DateUTC
2013-09-21 00:03:00,49.9,46.5,29.82,WNW,282,9.2,9.2,88,0.00,CLR,BKN,0.00,0.0,WeatherDisplay:10.37,2013-09-21 05:03:00,
2013-09-21 00:08:00,49.8,46.4,29.82,WNW,282,10.4,10.4,88,0.00,CLR,BKN,0.00,0.0,WeatherDisplay:10.37,2013-09-21 05:08:00,
2013-09-21 00:13:00,49.6,46.2,29.82,WNW,296,11.5,11.5,88,0.00,CLR,BKN,0.00,0.0,WeatherDisplay:10.37,2013-09-21 05:13:00,
2013-09-21 00:19:00,49.5,46.1,29.82,WNW,283,8.1,8.1,88,0.00,CLR,BKN,0.00,0.0,WeatherDisplay:10.37,2013-09-21 05:19:00,
2013-09-21 00:24:00,49.4,46.0,29.82,NW,306,8.1,8.1,88,0.00,CLR,BKN,0.00,0.0,WeatherDisplay:10.37,2013-09-21 05:24:00,
2013-09-21 00:29:00,49.4,46.3,29.82,WNW,283,11.5,11.5,89,0.00,CLR,BKN,0.00,0.0,WeatherDisplay:10.37,2013-09-21 05:29:00,
2013-09-21 00:34:00,49.2,46.1,29.82,WNW,285,8.0,8.0,89,0.00,CLR,BKN,0.00,0.0,WeatherDisplay:10.37,2013-09-21 05:34:00,
2013-09-21 00:39:00,49.1,46.0,29.82,West,278,8.1,8.1,89,0.00,CLR,BKN,0.00,0.0,WeatherDisplay:10.37,2013-09-21 05:39:00,
2013-09-21 00:44:00,49.1,46.0,29.82,NW,311,8.1,8.1,89,0.00,CLR,BKN,0.00,0.0,WeatherDisplay:10.37,2013-09-21 05:44:00,
2013-09-21 00:49:00,49.1,46.0,29.82,WNW,291,10.4,10.4,89,0.00,CLR,BKN,0.00,0.0,WeatherDisplay:10.37,2013-09-21 05:49:00,
2013-09-21 00:55:00,48.9,46.1,29.82,West,279,8.1,8.1,90,0.00,CLR,BKN,0.00,0.0,WeatherDisplay:10.37,2013-09-21 05:55:00,
2013-09-21 01:00:00,48.9,46.1,29.82,WNW,287,7.0,10.0,90,0.00,CLR,BKN,0.00,0.0,WeatherDisplay:10.37,2013-09-21 06:00:00,
2013-09-21 01:05:00,49.1,46.3,29.82,WNW,290,7.0,12.0,90,0.00,CLR,BKN,0.00,0.0,WeatherDisplay:10.37,2013-09-21 06:05:00,
2013-09-21 01:10:00,49.1,46.3,29.82,WNW,291,7.0,9.0,90,0.00,CLR,BKN,0.00,0.0,WeatherDisplay:10.37,2013-09-21 06:10:00,
2013-09-21 01:15:00,49.1,46.0,29.82,NW,307,11.5,11.5,89,0.00,CLR,BKN,0.00,0.0,WeatherDisplay:10.37,2013-09-21 06:15:00,
2013-09-21 01:20:00,49.1,46.0,29.82,WNW,295,6.0,10.0,89,0.00,CLR,BKN,0.00,0.0,WeatherDisplay:10.37,2013-09-21 06:20:00,
2013-09-21 01:25:00,49.1,46.0,29.83,WNW,292,8.0,10.0,89,0.00,CLR,BKN,0.00,0.0,WeatherDisplay:10.37,2013-09-21 06:25:00,
2013-09-21 01:30:00,49.2,46.1,29.83,WNW,292,9.0,14.0,89,0.00,CLR,BKN,0.00,0.0,WeatherDisplay:10.37,2013-09-21 06:30:00,
2013-09-21 01:35:00,49.2,46.1,29.83,WNW,293,9.0,13.0,89,0.00,CLR,BKN,0.00,0.0,WeatherDisplay:10.37,2013-09-21 06:35:00,
2013-09-21 01:40:00,49.2,45.8,29.83,WNW,290,7.0,12.0,88,0.00,CLR,BKN,0.00,0.0,WeatherDisplay:10.37,2013-09-21 06:40:00,
2013-09-21 01:45:00,49.2,45.8,29.83,WNW,286,7.0,12.0,88,0.00,CLR,BKN,0.00,0.0,WeatherDisplay:10.37,2013-09-21 06:45:00,
2013-09-21 01:50:00,49.2,45.8,29.83,WNW,296,9.2,9.2,88,0.00,CLR,BKN,0.00,0.0,WeatherDisplay:10.37,2013-09-21 06:50:00,
2013-09-21 01:55:00,49.2,45.8,29.83,WNW,285,7.0,12.0,88,0.00,CLR,BKN,0.00,0.0,WeatherDisplay:10.37,2013-09-21 06:55:00,
2013-09-21 02:00:00,49.4,46.0,29.83,WNW,293,9.0,15.0,88,0.00,CLR,BKN,0.00,0.0,WeatherDisplay:10.37,2013-09-21 07:00:00,
2013-09-21 02:05:00,49.4,46.0,29.83,WNW,295,7.0,14.0,88,0.00,CLR,BKN,0.00,0.0,WeatherDisplay:10.37,2013-09-21 07:05:00,
2013-09-21 02:10:00,49.4,46.0,29.83,WNW,282,8.0,14.0,88,0.00,CLR,BKN,0.00,0.0,WeatherDisplay:10.37,2013-09-21 07:10:00,
2013-09-21 02:15:00,49.4,46.0,29.83,WNW,286,8.0,14.0,88,0.00,CLR,BKN,0.00,0.0,WeatherDisplay:10.37,2013-09-21 07:15:00,
2013-09-21 02:20:00,49.4,46.0,29.83,WNW,284,8.0,10.0,88,0.00,CLR,BKN,0.00,0.0,WeatherDisplay:10.37,2013-09-21 07:20:00,
2013-09-21 02:25:00,49.2,45.8,29.83,West,279,10.4,10.4,88,0.00,CLR,BKN,0.00,0.0,WeatherDisplay:10.37,2013-09-21 07:25:00,
2013-09-21 02:30:00,49.2,45.8,29.83,WNW,291,8.0,12.0,88,0.00,CLR,BKN,0.00,0.0,WeatherDisplay:10.37,2013-09-21 07:30:00,
2013-09-21 02:35:00,49.2,45.8,29.83,WNW,292,7.0,10.0,88,0.00,CLR,BKN,0.00,0.0,WeatherDisplay:10.37,2013-09-21 07:35:00,
2013-09-21 02:40:00,49.2,45.8,29.83,WNW,293,6.0,10.0,88,0.00,CLR,BKN,0.00,0.0,WeatherDisplay:10.37,2013-09-21 07:40:00,
2013-09-21 02:45:00,49.2,45.8,29.83,WNW,292,8.0,12.0,88,0.00,CLR,BKN,0.00,0.0,WeatherDisplay:10.37,2013-09-21 07:45:00,
2013-09-21 02:50:00,49.2,45.8,29.84,WNW,286,6.0,9.0,88,0.00,CLR,BKN,0.00,0.0,WeatherDisplay:10.37,2013-09-21 07:50:00,
2013-09-21 02:55:00,49.2,45.8,29.83,WNW,298,5.0,10.0,88,0.00,CLR,BKN,0.00,0.0,WeatherDisplay:10.37,2013-09-21 07:55:00,
2013-09-21 03:00:00,49.1,45.7,29.83,WNW,291,9.2,9.2,88,0.00,CLR,BKN,0.00,0.0,WeatherDisplay:10.37,2013-09-21 08:00:00,
2013-09-21 03:05:00,49.1,45.7,29.84,WNW,284,6.0,12.0,88,0.00,CLR,BKN,0.00,0.0,WeatherDisplay:10.37,2013-09-21 08:05:00,
2013-09-21 03:10:00,49.1,45.7,29.83,WNW,299,8.0,10.0,88,0.00,CLR,BKN,0.00,0.0,WeatherDisplay:10.37,2013-09-21 08:10:00,
2013-09-21 03:15:00,48.9,45.2,29.83,NW,305,6.0,12.0,87,0.00,CLR,BKN,0.00,0.0,WeatherDisplay:10.37,2013-09-21 08:15:00,
2013-09-21 03:20:00,48.9,45.5,29.84,WNW,296,8.0,13.0,88,0.00,CLR,BKN,0.00,0.0,WeatherDisplay:10.37,2013-09-21 08:20:00,
2013-09-21 03:25:00,48.9,45.5,29.84,WNW,298,8.0,13.0,88,0.00,CLR,BKN,0.00,0.0,WeatherDisplay:10.37,2013-09-21 08:25:00,
2013-09-21 03:30:00,48.8,45.4,29.84,WNW,302,8.0,12.0,88,0.00,CLR,BKN,0.00,0.0,WeatherDisplay:10.37,2013-09-21 08:30:00,
2013-09-21 03:35:00,48.8,45.1,29.84,WNW,296,9.0,9.0,87,0.00,CLR,BKN,0.00,0.0,WeatherDisplay:10.37,2013-09-21 08:35:00,
2013-09-21 03:40:00,48.8,45.4,29.84,WNW,293,7.0,10.0,88,0.00,CLR,BKN,0.00,0.0,WeatherDisplay:10.37,2013-09-21 08:40:00,
2013-09-21 03:45:00,48.8,45.4,29.84,WNW,294,9.2,9.2,88,0.00,CLR,BKN,0.00,0.0,WeatherDisplay:10.37,2013-09-21 08:45:00,
2013-09-21 03:50:00,48.8,45.4,29.84,WNW,294,8.0,13.0,88,0.00,CLR,BKN,0.00,0.0,WeatherDisplay:10.37,2013-09-21 08:50:00,
2013-09-21 03:55:00,48.8,45.1,29.84,WNW,296,8.0,14.0,87,0.00,CLR,BKN,0.00,0.0,WeatherDisplay:10.37,2013-09-21 08:55:00,
2013-09-21 04:00:00,48.8,45.1,29.84,NW,308,7.0,15.0,87,0.00,CLR,BKN,0.00,0.0,WeatherDisplay:10.37,2013-09-21 09:00:00,
2013-09-21 04:05:00,48.8,45.1,29.84,NW,304,7.0,12.0,87,0.00,CLR,BKN,0.00,0.0,WeatherDisplay:10.37,2013-09-21 09:05:00,
2013-09-21 04:10:00,48.8,45.1,29.84,WNW,290,11.5,11.5,87,0.00,CLR,BKN,0.00,0.0,WeatherDisplay:10.37,2013-09-21 09:10:00,
2013-09-21 04:15:00,48.8,45.1,29.84,WNW,294,7.0,13.0,87,0.00,CLR,BKN,0.00,0.0,WeatherDisplay:10.37,2013-09-21 09:15:00,
2013-09-21 04:20:00,48.6,44.9,29.84,WNW,297,6.0,17.0,87,0.00,CLR,BKN,0.00,0.0,WeatherDisplay:10.37,2013-09-21 09:20:00,
2013-09-21 04:25:00,48.6,45.0,29.84,WNW,288,7.0,10.0,87,0.00,CLR,BKN,0.00,0.0,WeatherDisplay:10.37,2013-09-21 09:25:00,
2013-09-21 04:30:00,48.6,44.9,29.85,WNW,290,7.0,15.0,87,0.00,CLR,BKN,0.00,0.0,WeatherDisplay:10.37,2013-09-21 09:30:00,
2013-09-21 04:35:00,48.6,44.6,29.85,WNW,296,8.1,8.1,86,0.00,CLR,BKN,0.00,0.0,WeatherDisplay:10.37,2013-09-21 09:35:00,
2013-09-21 04:40:00,48.6,44.6,29.85,WNW,287,13.0,13.0,86,0.00,CLR,BKN,0.00,0.0,WeatherDisplay:10.37,2013-09-21 09:40:00,
2013-09-21 04:45:00,48.5,43.9,29.85,WNW,302,11.5,11.5,84,0.00,CLR,BKN,0.00,0.0,WeatherDisplay:10.37,2013-09-21 09:45:00,
2013-09-21 04:50:00,48.5,43.9,29.86,WNW,303,15.0,15.0,84,0.00,CLR,BKN,0.00,0.0,WeatherDisplay:10.37,2013-09-21 09:50:00,
2013-09-21 04:55:00,48.3,43.7,29.86,NW,316,9.2,9.5,84,0.00,CLR,BKN,0.00,0.0,WeatherDisplay:10.37,2013-09-21 09:55:00,
2013-09-21 05:00:00,48.3,43.7,29.86,NW,323,15.0,15.0,84,0.00,CLR,BKN,0.00,0.0,WeatherDisplay:10.37,2013-09-21 10:00:00,
2013-09-21 05:06:00,48.2,43.6,29.86,NW,315,12.7,12.7,84,0.00,CLR,BKN,0.00,0.0,WeatherDisplay:10.37,2013-09-21 10:06:00,
2013-09-21 05:11:00,48.2,43.3,29.86,WNW,288,8.1,8.1,83,0.00,CLR,BKN,0.00,0.0,WeatherDisplay:10.37,2013-09-21 10:11:00,
2013-09-21 05:16:00,48.2,43.3,29.86,NW,310,13.0,13.0,83,0.00,CLR,BKN,0.00,0.0,WeatherDisplay:10.37,2013-09-21 10:16:00,
2013-09-21 05:21:00,48.0,43.1,29.86,NNW,328,6.9,6.9,83,0.00,CLR,BKN,0.00,0.0,WeatherDisplay:10.37,2013-09-21 10:21:00,
2013-09-21 05:26:00,48.0,43.1,29.86,NNW,334,12.7,12.7,83,0.00,CLR,BKN,0.00,0.0,WeatherDisplay:10.37,2013-09-21 10:26:00,
2013-09-21 05:31:00,48.0,43.4,29.87,NNW,329,9.2,9.2,84,0.00,CLR,BKN,0.00,0.0,WeatherDisplay:10.37,2013-09-21 10:31:00,
2013-09-21 05:36:00,47.9,43.0,29.87,NNW,333,11.5,11.5,83,0.00,CLR,BKN,0.00,0.0,WeatherDisplay:10.37,2013-09-21 10:36:00,
2013-09-21 05:42:00,47.7,42.5,29.87,NW,318,17.3,17.3,82,0.00,CLR,BKN,0.00,0.0,WeatherDisplay:10.37,2013-09-21 10:42:00,
2013-09-21 05:47:00,47.6,42.7,29.87,NNW,334,8.1,8.1,83,0.00,CLR,BKN,0.00,0.0,WeatherDisplay:10.37,2013-09-21 10:47:00,
2013-09-21 05:52:00,47.6,42.7,29.87,NW,317,12.7,12.7,83,0.00,CLR,BKN,0.00,0.0,WeatherDisplay:10.37,2013-09-21 10:52:00,
2013-09-21 05:57:00,47.4,42.5,29.87,NW,315,12.7,12.7,83,0.00,CLR,BKN,0.00,0.0,WeatherDisplay:10.37,2013-09-21 10:57:00,
2013-09-21 06:02:00,47.3,42.4,29.87,NNW,336,11.5,11.5,83,0.00,CLR,BKN,0.00,0.0,WeatherDisplay:10.37,2013-09-21 11:02:00,
2013-09-21 06:07:00,47.1,42.5,29.87,NW,306,12.7,12.7,84,0.00,CLR,BKN,0.00,0.0,WeatherDisplay:10.37,2013-09-21 11:07:00,
2013-09-21 06:12:00,47.0,42.4,29.88,NW,310,8.1,8.1,84,0.00,CLR,BKN,0.00,0.0,WeatherDisplay:10.37,2013-09-21 11:12:00,
2013-09-21 06:17:00,47.0,42.4,29.88,NNW,335,13.0,13.0,84,0.00,CLR,BKN,0.00,0.0,WeatherDisplay:10.37,2013-09-21 11:17:00,
2013-09-21 06:23:00,46.8,42.2,29.88,NW,306,12.7,12.7,84,0.00,CLR,BKN,0.00,0.0,WeatherDisplay:10.37,2013-09-21 11:23:00,
2013-09-21 06:28:00,46.8,42.5,29.89,NNW,338,12.7,12.7,85,0.00,CLR,BKN,0.00,0.0,WeatherDisplay:10.37,2013-09-21 11:28:00,
2013-09-21 06:33:00,46.7,42.7,29.88,NW,323,10.4,10.4,86,0.00,CLR,BKN,0.00,0.0,WeatherDisplay:10.37,2013-09-21 11:33:00,
2013-09-21 06:38:00,46.7,42.7,29.89,WNW,303,9.2,9.2,86,0.00,CLR,BKN,0.00,0.0,WeatherDisplay:10.37,2013-09-21 11:38:00,
2013-09-21 06:43:00,46.5,42.5,29.89,WNW,296,9.2,9.2,86,0.00,CLR,BKN,0.00,0.0,WeatherDisplay:10.37,2013-09-21 11:43:00,
2013-09-21 06:48:00,46.5,42.5,29.89,NNW,327,11.5,11.5,86,0.00,CLR,BKN,0.00,0.0,WeatherDisplay:10.37,2013-09-21 11:48:00,
2013-09-21 06:53:00,46.4,42.1,29.90,WNW,296,13.8,13.8,85,0.00,CLR,BKN,0.00,0.0,WeatherDisplay:10.37,2013-09-21 11:53:00,
2013-09-21 06:59:00,46.2,41.9,29.90,NW,321,11.5,11.5,85,0.00,CLR,BKN,0.00,0.0,WeatherDisplay:10.37,2013-09-21 11:59:00,
2013-09-21 07:04:00,46.2,41.9,29.90,WNW,302,5.8,5.8,85,0.00,CLR,BKN,0.00,0.0,WeatherDisplay:10.37,2013-09-21 12:04:00,
2013-09-21 07:09:00,46.1,41.5,29.90,NW,323,10.0,10.0,84,0.00,CLR,BKN,0.00,0.0,WeatherDisplay:10.37,2013-09-21 12:09:00,
2013-09-21 07:14:00,46.0,41.4,29.90,NW,308,8.1,8.1,84,0.00,CLR,BKN,0.00,0.0,WeatherDisplay:10.37,2013-09-21 12:14:00,
2013-09-21 07:19:00,46.0,41.4,29.90,NW,323,7.0,7.0,84,0.00,CLR,BKN,0.00,0.0,WeatherDisplay:10.37,2013-09-21 12:19:00,
2013-09-21 07:24:00,45.8,41.2,29.90,North,359,10.4,10.4,84,0.00,CLR,BKN,0.00,0.0,WeatherDisplay:10.37,2013-09-21 12:24:00,
2013-09-21 07:29:00,45.8,41.5,29.90,NW,325,9.0,9.0,85,0.00,CLR,BKN,0.00,0.0,WeatherDisplay:10.37,2013-09-21 12:29:00,
2013-09-21 07:34:00,45.8,41.5,29.90,NW,313,5.8,5.8,85,0.00,CLR,BKN,0.00,0.0,WeatherDisplay:10.37,2013-09-21 12:34:00,
2013-09-21 07:40:00,45.8,41.2,29.90,NW,319,11.5,11.5,84,0.00,CLR,BKN,0.00,0.0,WeatherDisplay:10.37,2013-09-21 12:40:00,
2013-09-21 07:45:00,45.8,41.2,29.90,NW,326,6.0,12.0,84,0.00,CLR,BKN,0.00,0.0,WeatherDisplay:10.37,2013-09-21 12:45:00,
2013-09-21 07:50:00,45.7,40.8,29.90,NNW,333,5.0,12.0,83,0.00,CLR,BKN,0.00,0.0,WeatherDisplay:10.37,2013-09-21 12:50:00,
2013-09-21 07:55:00,45.7,41.1,29.91,NNW,343,3.0,8.0,84,0.00,CLR,BKN,0.00,0.0,WeatherDisplay:10.37,2013-09-21 12:55:00,
2013-09-21 08:00:00,45.7,41.1,29.91,NNW,343,8.0,12.0,84,0.00,OVC,BKN,0.00,0.0,WeatherDisplay:10.37,2013-09-21 13:00:00,
2013-09-21 08:05:00,45.7,40.8,29.91,NNW,328,6.0,10.0,83,0.00,OVC,BKN,0.00,0.0,WeatherDisplay:10.37,2013-09-21 13:05:00,
2013-09-21 08:10:00,45.7,40.5,29.91,NW,324,7.0,18.0,82,0.00,OVC,BKN,0.00,0.0,WeatherDisplay:10.37,2013-09-21 13:10:00,
2013-09-21 08:15:00,45.5,40.0,29.91,NW,323,13.8,13.8,81,0.00,OVC,BKN,0.00,0.0,WeatherDisplay:10.37,2013-09-21 13:15:00,
2013-09-21 08:20:00,45.5,40.3,29.92,NNW,336,10.0,16.0,82,0.00,OVC,BKN,0.00,0.0,WeatherDisplay:10.37,2013-09-21 13:20:00,
2013-09-21 08:25:00,45.5,40.0,29.92,NW,326,1.0,16.0,81,0.00,OVC,BKN,0.00,0.0,WeatherDisplay:10.37,2013-09-21 13:25:00,
2013-09-21 08:30:00,45.5,40.3,29.92,NNW,327,9.0,13.0,82,0.00,OVC,BKN,0.00,0.0,WeatherDisplay:10.37,2013-09-21 13:30:00,
2013-09-21 08:35:00,45.5,39.7,29.92,NNW,345,7.0,15.0,80,0.00,OVC,BKN,0.00,0.0,WeatherDisplay:10.37,2013-09-21 13:35:00,
2013-09-21 08:40:00,45.5,39.4,29.92,NNE,19,15.0,15.0,79,0.00,OVC,BKN,0.00,0.0,WeatherDisplay:10.37,2013-09-21 13:40:00,
2013-09-21 08:45:00,45.5,39.7,29.92,NNW,333,6.9,6.9,80,0.00,OVC,BKN,0.00,0.0,WeatherDisplay:10.37,2013-09-21 13:45:00,
2013-09-21 08:50:00,45.7,40.2,29.92,WNW,289,11.5,11.5,81,0.00,OVC,BKN,0.00,0.0,WeatherDisplay:10.37,2013-09-21 13:50:00,
2013-09-21 08:55:00,45.7,39.9,29.92,West,281,14.0,14.0,80,0.00,OVC,BKN,0.00,0.0,WeatherDisplay:10.37,2013-09-21 13:55:00,
2013-09-21 09:00:00,45.7,39.9,29.93,NW,321,21.9,21.9,80,0.00,OVC,BKN,0.00,0.0,WeatherDisplay:10.37,2013-09-21 14:00:00,
2013-09-21 09:05:00,45.7,39.2,29.93,WNW,288,17.3,17.3,78,0.00,OVC,BKN,0.00,0.0,WeatherDisplay:10.37,2013-09-21 14:05:00,
2013-09-21 09:11:00,45.7,39.6,29.93,North,10,11.5,11.5,79,0.00,OVC,BKN,0.00,0.0,WeatherDisplay:10.37,2013-09-21 14:11:00,
2013-09-21 09:16:00,45.7,38.9,29.93,NW,309,12.7,12.7,77,0.00,OVC,BKN,0.00,0.0,WeatherDisplay:10.37,2013-09-21 14:16:00,
2013-09-21 09:21:00,45.7,39.2,29.93,WNW,298,9.2,9.2,78,0.00,OVC,BKN,0.00,0.0,WeatherDisplay:10.37,2013-09-21 14:21:00,
2013-09-21 09:26:00,45.7,39.2,29.93,NNW,327,13.8,13.8,78,0.00,OVC,BKN,0.00,0.0,WeatherDisplay:10.37,2013-09-21 14:26:00,
2013-09-21 09:32:00,45.8,39.0,29.93,NNW,340,10.4,10.5,77,0.00,OVC,BKN,0.00,0.0,WeatherDisplay:10.37,2013-09-21 14:32:00,
2013-09-21 09:37:00,45.8,38.7,29.93,NNW,346,9.2,9.2,76,0.00,OVC,BKN,0.00,0.0,WeatherDisplay:10.37,2013-09-21 14:37:00,
2013-09-21 09:42:00,46.0,38.9,29.93,WNW,286,16.1,16.1,76,0.00,OVC,BKN,0.00,0.0,WeatherDisplay:10.37,2013-09-21 14:42:00,
2013-09-21 09:47:00,46.0,38.9,29.93,NNW,329,15.0,15.0,76,0.00,OVC,BKN,0.00,0.0,WeatherDisplay:10.37,2013-09-21 14:47:00,
2013-09-21 09:52:00,46.0,38.9,29.93,NW,313,11.5,11.5,76,0.00,OVC,BKN,0.00,0.0,WeatherDisplay:10.37,2013-09-21 14:52:00,
2013-09-21 09:57:00,46.0,38.5,29.93,NW,311,11.5,11.5,75,0.00,OVC,BKN,0.00,0.0,WeatherDisplay:10.37,2013-09-21 14:57:00,
2013-09-21 10:02:00,46.1,38.6,29.93,North,356,12.7,12.7,75,0.00,OVC,BKN,0.00,0.0,WeatherDisplay:10.37,2013-09-21 15:02:00,
2013-09-21 10:08:00,46.4,37.9,29.93,NW,310,13.8,13.8,72,0.00,OVC,BKN,0.00,0.0,WeatherDisplay:10.37,2013-09-21 15:08:00,
2013-09-21 10:13:00,46.7,38.1,29.93,West,280,11.5,11.5,72,0.00,OVC,BKN,0.00,0.0,WeatherDisplay:10.37,2013-09-21 15:13:00,
2013-09-21 10:18:00,47.4,38.5,29.93,WSW,257,18.4,18.4,71,0.00,OVC,BKN,0.00,0.0,WeatherDisplay:10.37,2013-09-21 15:18:00,
2013-09-21 10:23:00,47.3,38.4,29.93,NNE,23,10.4,10.4,71,0.00,OVC,BKN,0.00,0.0,WeatherDisplay:10.37,2013-09-21 15:23:00,
2013-09-21 10:28:00,47.1,37.4,29.93,North,4,16.1,16.1,69,0.00,OVC,BKN,0.00,0.0,WeatherDisplay:10.37,2013-09-21 15:28:00,
2013-09-21 10:33:00,47.6,37.6,29.93,NNW,329,15.0,15.0,68,0.00,OVC,BKN,0.00,0.0,WeatherDisplay:10.37,2013-09-21 15:33:00,
2013-09-21 10:38:00,47.9,39.3,29.93,NNW,331,9.2,9.2,72,0.00,OVC,BKN,0.00,0.0,WeatherDisplay:10.37,2013-09-21 15:38:00,
2013-09-21 10:43:00,48.0,37.2,29.93,NNE,23,21.9,21.9,66,0.00,OVC,BKN,0.00,0.0,WeatherDisplay:10.37,2013-09-21 15:43:00,
2013-09-21 10:49:00,48.3,38.6,29.93,North,356,10.4,10.4,69,0.00,OVC,BKN,0.00,0.0,WeatherDisplay:10.37,2013-09-21 15:49:00,
2013-09-21 10:54:00,48.3,37.8,29.93,North,353,17.0,17.0,67,0.00,OVC,BKN,0.00,0.0,WeatherDisplay:10.37,2013-09-21 15:54:00,
2013-09-21 10:59:00,48.3,39.0,29.93,WNW,285,11.5,11.5,70,0.00,OVC,BKN,0.00,0.0,WeatherDisplay:10.37,2013-09-21 15:59:00,
2013-09-21 11:04:00,48.0,39.4,29.94,NW,324,13.8,13.8,72,0.00,OVC,BKN,0.00,0.0,WeatherDisplay:10.37,2013-09-21 16:04:00,
2013-09-21 11:09:00,47.7,38.8,29.94,WSW,256,11.5,11.5,71,0.00,OVC,BKN,0.00,0.0,WeatherDisplay:10.37,2013-09-21 16:09:00,
2013-09-21 11:14:00,47.6,40.7,29.94,WNW,295,11.5,11.5,77,0.00,OVC,BKN,0.00,0.0,WeatherDisplay:10.37,2013-09-21 16:14:00,
2013-09-21 11:19:00,47.9,38.9,29.94,North,9,10.4,10.4,71,0.00,OVC,BKN,0.00,0.0,WeatherDisplay:10.37,2013-09-21 16:19:00,
2013-09-21 11:25:00,48.2,39.2,29.94,WNW,296,11.5,11.5,71,0.00,OVC,BKN,0.00,0.0,WeatherDisplay:10.37,2013-09-21 16:25:00,
2013-09-21 11:30:00,48.0,38.3,29.94,NW,324,12.0,17.0,69,0.00,OVC,BKN,0.00,0.0,WeatherDisplay:10.37,2013-09-21 16:30:00,
2013-09-21 11:35:00,48.3,38.9,29.94,NNW,327,7.0,13.0,70,0.00,OVC,BKN,0.00,0.0,WeatherDisplay:10.37,2013-09-21 16:35:00,
2013-09-21 11:40:00,48.3,39.7,29.94,NW,305,5.0,13.0,72,0.00,OVC,BKN,0.00,0.0,WeatherDisplay:10.37,2013-09-21 16:40:00,
2013-09-21 11:45:00,48.5,39.5,29.94,WNW,299,11.0,11.0,71,0.00,OVC,BKN,0.00,0.0,WeatherDisplay:10.37,2013-09-21 16:45:00,
2013-09-21 11:50:00,48.3,37.5,29.94,NNW,328,7.0,13.0,66,0.00,OVC,BKN,0.00,0.0,WeatherDisplay:10.37,2013-09-21 16:50:00,
2013-09-21 11:55:00,48.9,38.4,29.94,NNW,331,6.0,13.0,67,0.00,OVC,BKN,0.00,0.0,WeatherDisplay:10.37,2013-09-21 16:55:00,
2013-09-21 12:00:00,49.6,38.7,29.94,NNW,332,10.0,13.0,66,0.00,OVC,BKN,0.00,0.0,WeatherDisplay:10.37,2013-09-21 17:00:00,
2013-09-21 12:05:00,49.4,38.6,29.94,NW,321,6.0,9.0,66,0.00,OVC,BKN,0.00,0.0,WeatherDisplay:10.37,2013-09-21 17:05:00,
2013-09-21 12:10:00,49.7,40.7,29.94,WNW,300,7.0,12.0,71,0.00,OVC,BKN,0.00,0.0,WeatherDisplay:10.37,2013-09-21 17:10:00,
2013-09-21 12:15:00,49.9,41.6,29.94,West,266,17.3,17.3,73,0.00,OVC,BKN,0.00,0.0,WeatherDisplay:10.37,2013-09-21 17:15:00,
2013-09-21 12:20:00,49.8,41.5,29.94,WNW,290,11.5,11.5,73,0.00,OVC,BKN,0.00,0.0,WeatherDisplay:10.37,2013-09-21 17:20:00,
2013-09-21 12:25:00,49.9,42.3,29.94,West,278,16.1,16.1,75,0.00,OVC,BKN,0.00,0.0,WeatherDisplay:10.37,2013-09-21 17:25:00,
2013-09-21 12:30:00,50.1,40.7,29.94,WNW,302,9.2,9.2,70,0.00,OVC,BKN,0.00,0.0,WeatherDisplay:10.37,2013-09-21 17:30:00,
2013-09-21 12:35:00,49.8,38.9,29.94,West,266,11.5,11.5,66,0.00,OVC,BKN,0.00,0.0,WeatherDisplay:10.37,2013-09-21 17:35:00,
2013-09-21 12:40:00,50.1,40.7,29.93,West,266,11.5,11.5,70,0.00,OVC,BKN,0.00,0.0,WeatherDisplay:10.37,2013-09-21 17:40:00,
2013-09-21 12:46:00,50.7,41.6,29.93,West,266,8.1,8.1,71,0.00,OVC,BKN,0.00,0.0,WeatherDisplay:10.37,2013-09-21 17:46:00,
2013-09-21 12:51:00,51.0,40.8,29.93,WNW,283,13.8,13.8,68,0.00,OVC,BKN,0.00,0.0,WeatherDisplay:10.37,2013-09-21 17:51:00,
2013-09-21 12:56:00,51.1,39.3,29.93,North,353,5.8,5.8,64,0.00,OVC,BKN,0.00,0.0,WeatherDisplay:10.37,2013-09-21 17:56:00,
2013-09-21 13:01:00,51.0,39.6,29.93,NW,321,9.0,9.0,65,0.00,OVC,BKN,0.00,0.0,WeatherDisplay:10.37,2013-09-21 18:01:00,
2013-09-21 13:06:00,51.1,41.3,29.93,WNW,300,19.6,19.6,69,0.00,OVC,BKN,0.00,0.0,WeatherDisplay:10.37,2013-09-21 18:06:00,
2013-09-21 13:11:00,51.3,40.7,29.93,WNW,290,17.3,17.3,67,0.00,OVC,BKN,0.00,0.0,WeatherDisplay:10.37,2013-09-21 18:11:00,
2013-09-21 13:16:00,51.6,41.4,29.93,West,276,13.8,13.8,68,0.00,OVC,BKN,0.00,0.0,WeatherDisplay:10.37,2013-09-21 18:16:00,
2013-09-21 13:21:00,51.7,41.9,29.93,West,261,15.0,15.0,69,0.00,OVC,BKN,0.00,0.0,WeatherDisplay:10.37,2013-09-21 18:21:00,
2013-09-21 13:27:00,51.9,41.7,29.93,WNW,282,12.0,12.0,68,0.00,OVC,BKN,0.00,0.0,WeatherDisplay:10.37,2013-09-21 18:27:00,
2013-09-21 13:32:00,51.7,41.1,29.93,West,266,14.0,14.0,67,0.00,OVC,BKN,0.00,0.0,WeatherDisplay:10.37,2013-09-21 18:32:00,
2013-09-21 13:37:00,52.3,40.5,29.93,NNW,333,11.5,11.5,64,0.00,OVC,BKN,0.00,0.0,WeatherDisplay:10.37,2013-09-21 18:37:00,
2013-09-21 13:42:00,52.2,40.4,29.92,WNW,292,10.4,10.4,64,0.00,OVC,BKN,0.00,0.0,WeatherDisplay:10.37,2013-09-21 18:42:00,
2013-09-21 13:47:00,52.6,41.2,29.92,West,277,11.5,11.5,65,0.00,OVC,BKN,0.00,0.0,WeatherDisplay:10.37,2013-09-21 18:47:00,
2013-09-21 13:52:00,52.8,42.5,29.92,WNW,291,9.2,9.2,68,0.00,OVC,BKN,0.00,0.0,WeatherDisplay:10.37,2013-09-21 18:52:00,
2013-09-21 13:57:00,52.9,43.4,29.92,WNW,285,17.3,17.3,70,0.00,OVC,BKN,0.00,0.0,WeatherDisplay:10.37,2013-09-21 18:57:00,
2013-09-21 14:03:00,53.3,42.6,29.92,West,266,12.7,12.7,67,0.00,OVC,BKN,0.00,0.0,WeatherDisplay:10.37,2013-09-21 19:03:00,
2013-09-21 14:08:00,53.1,41.2,29.92,West,281,13.8,13.8,64,0.00,OVC,BKN,0.00,0.0,WeatherDisplay:10.37,2013-09-21 19:08:00,
2013-09-21 14:13:00,53.1,42.0,29.92,WNW,296,13.8,13.8,66,0.00,OVC,BKN,0.00,0.0,WeatherDisplay:10.37,2013-09-21 19:13:00,
2013-09-21 14:18:00,53.3,42.6,29.92,West,266,15.0,15.0,67,0.00,OVC,BKN,0.00,0.0,WeatherDisplay:10.37,2013-09-21 19:18:00,
2013-09-21 14:23:00,53.6,42.5,29.92,West,281,15.0,15.0,66,0.00,OVC,BKN,0.00,0.0,WeatherDisplay:10.37,2013-09-21 19:23:00,
2013-09-21 14:28:00,53.5,41.2,29.92,WNW,291,12.7,12.7,63,0.00,OVC,BKN,0.00,0.0,WeatherDisplay:10.37,2013-09-21 19:28:00,
2013-09-21 14:33:00,53.6,41.3,29.92,NNW,333,12.7,12.7,63,0.00,OVC,BKN,0.00,0.0,WeatherDisplay:10.37,2013-09-21 19:33:00,
2013-09-21 14:38:00,54.1,40.1,29.92,NNW,333,12.7,12.7,59,0.00,OVC,BKN,0.00,0.0,WeatherDisplay:10.37,2013-09-21 19:38:00,
2013-09-21 14:44:00,54.4,41.2,29.92,West,275,12.7,12.7,61,0.00,OVC,BKN,0.00,0.0,WeatherDisplay:10.37,2013-09-21 19:44:00,
2013-09-21 14:49:00,54.2,41.5,29.92,West,266,5.8,5.8,62,0.00,OVC,BKN,0.00,0.0,WeatherDisplay:10.37,2013-09-21 19:49:00,
2013-09-21 14:54:00,54.2,42.3,29.92,WNW,288,9.2,9.2,64,0.00,OVC,BKN,0.00,0.0,WeatherDisplay:10.37,2013-09-21 19:54:00,
2013-09-21 14:59:00,54.5,42.2,29.92,NNW,337,3.0,3.0,63,0.00,OVC,BKN,0.00,0.0,WeatherDisplay:10.37,2013-09-21 19:59:00,
2013-09-21 15:04:00,54.2,40.2,29.92,WNW,297,9.0,9.0,59,0.00,OVC,BKN,0.00,0.0,WeatherDisplay:10.37,2013-09-21 20:04:00,
2013-09-21 15:09:00,54.7,41.9,29.92,West,271,9.2,9.2,62,0.00,OVC,BKN,0.00,0.0,WeatherDisplay:10.37,2013-09-21 20:09:00,
2013-09-21 15:14:00,55.0,40.5,29.92,North,352,11.5,11.5,58,0.00,OVC,BKN,0.00,0.0,WeatherDisplay:10.37,2013-09-21 20:14:00,
2013-09-21 15:20:00,55.1,41.0,29.92,North,351,16.1,16.1,59,0.00,OVC,BKN,0.00,0.0,WeatherDisplay:10.37,2013-09-21 20:20:00,
2013-09-21 15:25:00,55.0,43.0,29.92,NNW,345,2.0,9.0,64,0.00,OVC,BKN,0.00,0.0,WeatherDisplay:10.37,2013-09-21 20:25:00,
2013-09-21 15:30:00,55.1,40.6,29.92,North,354,9.0,16.0,58,0.00,OVC,BKN,0.00,0.0,WeatherDisplay:10.37,2013-09-21 20:30:00,
2013-09-21 15:35:00,55.3,41.6,29.92,WNW,294,10.4,10.4,60,0.00,OVC,BKN,0.00,0.0,WeatherDisplay:10.37,2013-09-21 20:35:00,
2013-09-21 15:40:00,55.4,40.4,29.92,WNW,299,5.8,5.8,57,0.00,OVC,BKN,0.00,0.0,WeatherDisplay:10.37,2013-09-21 20:40:00,
2013-09-21 15:45:00,55.1,41.0,29.92,WNW,286,6.9,6.9,59,0.00,OVC,BKN,0.00,0.0,WeatherDisplay:10.37,2013-09-21 20:45:00,
2013-09-21 15:50:00,55.3,43.3,29.92,WNW,283,11.5,11.5,64,0.00,OVC,BKN,0.00,0.0,WeatherDisplay:10.37,2013-09-21 20:50:00,
2013-09-21 15:55:00,55.6,40.6,29.92,NNW,344,17.3,17.3,57,0.00,OVC,BKN,0.00,0.0,WeatherDisplay:10.37,2013-09-21 20:55:00,
2013-09-21 16:00:00,55.3,41.2,29.92,NNW,328,10.0,10.0,59,0.00,OVC,BKN,0.00,0.0,WeatherDisplay:10.37,2013-09-21 21:00:00,
2013-09-21 16:05:00,55.0,41.4,29.92,NNW,329,11.5,11.5,60,0.00,OVC,BKN,0.00,0.0,WeatherDisplay:10.37,2013-09-21 21:05:00,
2013-09-21 16:11:00,55.3,42.5,29.91,WNW,282,8.1,8.1,62,0.00,OVC,BKN,0.00,0.0,WeatherDisplay:10.37,2013-09-21 21:11:00,
2013-09-21 16:16:00,55.1,42.3,29.92,NNE,18,6.9,6.9,62,0.00,OVC,BKN,0.00,0.0,WeatherDisplay:10.37,2013-09-21 21:16:00,
2013-09-21 16:21:00,55.3,40.3,29.92,WNW,302,6.9,6.9,57,0.00,OVC,BKN,0.00,0.0,WeatherDisplay:10.37,2013-09-21 21:21:00,
2013-09-21 16:26:00,55.3,43.3,29.92,NNW,328,10.4,10.4,64,0.00,OVC,BKN,0.00,0.0,WeatherDisplay:10.37,2013-09-21 21:26:00,
2013-09-21 16:31:00,55.3,40.3,29.92,North,354,8.0,8.0,57,0.00,OVC,BKN,0.00,0.0,WeatherDisplay:10.37,2013-09-21 21:31:00,
2013-09-21 16:36:00,55.3,41.2,29.92,NNW,329,9.0,9.0,59,0.00,OVC,BKN,0.00,0.0,WeatherDisplay:10.37,2013-09-21 21:36:00,
2013-09-21 16:41:00,55.1,42.3,29.92,NW,326,11.5,11.5,62,0.00,OVC,BKN,0.00,0.0,WeatherDisplay:10.37,2013-09-21 21:41:00,
2013-09-21 16:47:00,55.0,40.5,29.92,NNW,348,10.4,10.4,58,0.00,OVC,BKN,0.00,0.0,WeatherDisplay:10.37,2013-09-21 21:47:00,
2013-09-21 16:52:00,54.7,40.6,29.92,NNE,27,8.1,8.1,59,0.00,OVC,BKN,0.00,0.0,WeatherDisplay:10.37,2013-09-21 21:52:00,
2013-09-21 16:57:00,54.2,40.2,29.92,NNW,327,6.9,6.9,59,0.00,OVC,BKN,0.00,0.0,WeatherDisplay:10.37,2013-09-21 21:57:00,
2013-09-21 17:02:00,54.4,40.8,29.92,NW,312,6.9,6.9,60,0.00,OVC,BKN,0.00,0.0,WeatherDisplay:10.37,2013-09-21 22:02:00,
2013-09-21 17:07:00,54.5,40.9,29.92,NW,319,10.4,10.4,60,0.00,OVC,BKN,0.00,0.0,WeatherDisplay:10.37,2013-09-21 22:07:00,
2013-09-21 17:12:00,54.7,42.3,29.92,NW,313,9.2,9.2,63,0.00,OVC,BKN,0.00,0.0,WeatherDisplay:10.37,2013-09-21 22:12:00,
2013-09-21 17:17:00,54.5,40.9,29.92,North,349,8.1,8.1,60,0.00,OVC,BKN,0.00,0.0,WeatherDisplay:10.37,2013-09-21 22:17:00,
2013-09-21 17:22:00,54.5,42.6,29.92,NW,323,6.9,6.9,64,0.00,OVC,BKN,0.00,0.0,WeatherDisplay:10.37,2013-09-21 22:22:00,
2013-09-21 17:28:00,54.2,40.6,29.92,NNE,16,11.5,11.5,60,0.00,OVC,BKN,0.00,0.0,WeatherDisplay:10.37,2013-09-21 22:28:00,
2013-09-21 17:33:00,54.2,41.9,29.92,North,349,6.9,6.9,63,0.00,OVC,BKN,0.00,0.0,WeatherDisplay:10.37,2013-09-21 22:33:00,
2013-09-21 17:38:00,53.9,42.8,29.92,NNE,13,4.6,4.6,66,0.00,OVC,BKN,0.00,0.0,WeatherDisplay:10.37,2013-09-21 22:38:00,
2013-09-21 17:43:00,53.5,42.8,29.92,North,360,7.0,7.0,67,0.00,OVC,BKN,0.00,0.0,WeatherDisplay:10.37,2013-09-21 22:43:00,
2013-09-21 17:48:00,53.6,41.3,29.92,North,353,3.0,3.0,63,0.00,OVC,BKN,0.00,0.0,WeatherDisplay:10.37,2013-09-21 22:48:00,
2013-09-21 17:53:00,53.6,42.9,29.92,NNW,336,8.1,8.1,67,0.00,OVC,BKN,0.00,0.0,WeatherDisplay:10.37,2013-09-21 22:53:00,
2013-09-21 17:58:00,52.8,43.3,29.92,NNW,336,3.5,3.5,70,0.00,OVC,BKN,0.00,0.0,WeatherDisplay:10.37,2013-09-21 22:58:00,
2013-09-21 18:04:00,52.3,43.5,29.92,North,353,5.0,5.2,72,0.00,CLR,BKN,0.00,0.0,WeatherDisplay:10.37,2013-09-21 23:04:00,
2013-09-21 18:09:00,52.0,44.0,29.92,NNE,13,2.3,2.3,74,0.00,CLR,BKN,0.00,0.0,WeatherDisplay:10.37,2013-09-21 23:09:00,
2013-09-21 18:14:00,52.2,42.0,29.92,North,7,4.6,4.6,68,0.00,CLR,BKN,0.00,0.0,WeatherDisplay:10.37,2013-09-21 23:14:00,
2013-09-21 18:19:00,51.9,43.5,29.92,North,352,4.6,4.6,73,0.00,CLR,BKN,0.00,0.0,WeatherDisplay:10.37,2013-09-21 23:19:00,
2013-09-21 18:24:00,51.6,43.6,29.92,North,352,4.6,4.6,74,0.00,CLR,BKN,0.00,0.0,WeatherDisplay:10.37,2013-09-21 23:24:00,
2013-09-21 18:29:00,51.6,42.5,29.92,North,356,7.0,7.0,71,0.00,CLR,BKN,0.00,0.0,WeatherDisplay:10.37,2013-09-21 23:29:00,
2013-09-21 18:34:00,51.6,43.2,29.92,North,2,5.0,5.0,73,0.00,CLR,BKN,0.00,0.0,WeatherDisplay:10.37,2013-09-21 23:34:00,
2013-09-21 18:39:00,51.1,43.8,29.92,North,3,4.6,4.6,76,0.00,CLR,BKN,0.00,0.0,WeatherDisplay:10.37,2013-09-21 23:39:00,
2013-09-21 18:45:00,50.4,43.8,29.92,North,3,3.5,3.5,78,0.00,CLR,BKN,0.00,0.0,WeatherDisplay:10.37,2013-09-21 23:45:00,
2013-09-21 18:50:00,49.5,44.3,29.92,North,3,2.0,5.0,82,0.00,CLR,BKN,0.00,0.0,WeatherDisplay:10.37,2013-09-21 23:50:00,
2013-09-21 18:55:00,48.7,43.8,29.92,North,3,2.0,5.0,83,0.00,CLR,BKN,0.00,0.0,WeatherDisplay:10.37,2013-09-21 23:55:00,
2013-09-21 19:00:00,48.2,43.9,29.92,North,3,2.0,5.0,85,0.00,CLR,BKN,0.00,0.0,WeatherDisplay:10.37,2013-09-22 00:00:00,
2013-09-21 19:05:00,47.6,43.6,29.92,North,3,0.0,3.0,86,0.00,CLR,BKN,0.00,0.0,WeatherDisplay:10.37,2013-09-22 00:05:00,
2013-09-21 19:10:00,47.1,43.1,29.92,North,3,1.0,2.0,86,0.00,CLR,BKN,0.00,0.0,WeatherDisplay:10.37,2013-09-22 00:10:00,
2013-09-21 19:15:00,46.8,43.1,29.92,North,3,2.0,3.0,87,0.00,CLR,BKN,0.00,0.0,WeatherDisplay:10.37,2013-09-22 00:15:00,
2013-09-21 19:20:00,46.5,43.4,29.92,North,3,3.5,3.5,89,0.00,CLR,BKN,0.00,0.0,WeatherDisplay:10.37,2013-09-22 00:20:00,
2013-09-21 19:25:00,46.1,43.3,29.92,North,3,2.0,3.0,90,0.00,CLR,BKN,0.00,0.0,WeatherDisplay:10.37,2013-09-22 00:25:00,
2013-09-21 19:30:00,45.8,43.3,29.92,North,3,3.0,5.0,91,0.00,CLR,BKN,0.00,0.0,WeatherDisplay:10.37,2013-09-22 00:30:00,
2013-09-21 19:35:00,45.4,42.9,29.92,North,3,2.0,3.0,91,0.00,CLR,BKN,0.00,0.0,WeatherDisplay:10.37,2013-09-22 00:35:00,
2013-09-21 19:40:00,44.9,42.7,29.92,North,3,3.0,5.0,92,0.00,CLR,BKN,0.00,0.0,WeatherDisplay:10.37,2013-09-22 00:40:00,
2013-09-21 19:45:00,44.8,42.6,29.92,North,3,2.0,5.0,92,0.00,CLR,BKN,0.00,0.0,WeatherDisplay:10.37,2013-09-22 00:45:00,
2013-09-21 19:50:00,44.5,42.3,29.92,North,3,2.0,3.0,92,0.00,CLR,BKN,0.00,0.0,WeatherDisplay:10.37,2013-09-22 00:50:00,
2013-09-21 19:55:00,44.1,42.0,29.93,North,3,2.0,3.0,92,0.00,CLR,BKN,0.00,0.0,WeatherDisplay:10.37,2013-09-22 00:55:00,
2013-09-21 20:00:00,43.8,41.9,29.93,North,3,3.0,5.0,93,0.00,CLR,BKN,0.00,0.0,WeatherDisplay:10.37,2013-09-22 01:00:00,
2013-09-21 20:05:00,43.6,41.7,29.93,NNE,23,3.0,6.0,93,0.00,CLR,BKN,0.00,0.0,WeatherDisplay:10.37,2013-09-22 01:05:00,
2013-09-21 20:10:00,43.5,41.9,29.93,NNE,33,3.0,5.0,94,0.00,CLR,BKN,0.00,0.0,WeatherDisplay:10.37,2013-09-22 01:10:00,
2013-09-21 20:15:00,43.3,41.7,29.93,NE,34,2.0,4.0,94,0.00,CLR,BKN,0.00,0.0,WeatherDisplay:10.37,2013-09-22 01:15:00,
2013-09-21 20:20:00,43.2,41.6,29.93,NE,34,2.0,4.0,94,0.00,CLR,BKN,0.00,0.0,WeatherDisplay:10.37,2013-09-22 01:20:00,
2013-09-21 20:25:00,43.1,41.5,29.93,NE,34,3.0,4.0,94,0.00,CLR,BKN,0.00,0.0,WeatherDisplay:10.37,2013-09-22 01:25:00,
2013-09-21 20:30:00,42.8,41.2,29.93,NE,34,3.5,3.5,94,0.00,CLR,BKN,0.00,0.0,WeatherDisplay:10.37,2013-09-22 01:30:00,
2013-09-21 20:35:00,42.6,41.0,29.94,NE,34,2.0,3.0,94,0.00,CLR,BKN,0.00,0.0,WeatherDisplay:10.37,2013-09-22 01:35:00,
2013-09-21 20:40:00,42.6,41.0,29.94,NE,34,3.0,4.0,94,0.00,CLR,BKN,0.00,0.0,WeatherDisplay:10.37,2013-09-22 01:40:00,
2013-09-21 20:45:00,42.6,41.0,29.94,NE,34,3.5,3.5,94,0.00,CLR,BKN,0.00,0.0,WeatherDisplay:10.37,2013-09-22 01:45:00,
2013-09-21 20:50:00,42.6,41.0,29.94,NE,34,3.5,3.5,94,0.00,CLR,BKN,0.00,0.0,WeatherDisplay:10.37,2013-09-22 01:50:00,
2013-09-21 20:55:00,42.6,41.0,29.95,NE,34,3.5,3.5,94,0.00,CLR,BKN,0.00,0.0,WeatherDisplay:10.37,2013-09-22 01:55:00,
2013-09-21 21:00:00,42.6,41.0,29.95,NE,34,4.0,4.0,94,0.00,CLR,BKN,0.00,0.0,WeatherDisplay:10.37,2013-09-22 02:00:00,
2013-09-21 21:05:00,42.6,41.0,29.95,NE,34,3.5,3.5,94,0.00,CLR,BKN,0.00,0.0,WeatherDisplay:10.37,2013-09-22 02:05:00,
2013-09-21 21:10:00,42.6,41.0,29.95,NE,34,3.5,3.5,94,0.00,CLR,BKN,0.00,0.0,WeatherDisplay:10.37,2013-09-22 02:10:00,
2013-09-21 21:16:00,42.6,41.0,29.95,NE,34,3.5,3.5,94,0.00,CLR,BKN,0.00,0.0,WeatherDisplay:10.37,2013-09-22 02:16:00,
2013-09-21 21:21:00,42.6,40.7,29.96,NE,35,3.5,3.5,93,0.00,CLR,BKN,0.00,0.0,WeatherDisplay:10.37,2013-09-22 02:21:00,
2013-09-21 21:26:00,42.5,40.6,29.96,NE,35,3.5,3.5,93,0.00,CLR,BKN,0.00,0.0,WeatherDisplay:10.37,2013-09-22 02:26:00,
2013-09-21 21:31:00,42.5,40.6,29.96,NE,43,5.0,5.0,93,0.00,CLR,BKN,0.00,0.0,WeatherDisplay:10.37,2013-09-22 02:31:00,
2013-09-21 21:36:00,42.5,40.6,29.96,NE,49,5.0,5.0,93,0.00,CLR,BKN,0.00,0.0,WeatherDisplay:10.37,2013-09-22 02:36:00,
2013-09-21 21:41:00,42.3,40.4,29.96,NE,52,3.5,3.7,93,0.00,CLR,BKN,0.00,0.0,WeatherDisplay:10.37,2013-09-22 02:41:00,
2013-09-21 21:46:00,42.3,40.4,29.96,NE,52,3.5,3.5,93,0.00,CLR,BKN,0.00,0.0,WeatherDisplay:10.37,2013-09-22 02:46:00,
2013-09-21 21:52:00,42.2,40.3,29.96,NE,52,3.5,3.5,93,0.00,CLR,BKN,0.00,0.0,WeatherDisplay:10.37,2013-09-22 02:52:00,
2013-09-21 21:57:00,42.2,40.3,29.97,NE,52,3.5,3.5,93,0.00,CLR,BKN,0.00,0.0,WeatherDisplay:10.37,2013-09-22 02:57:00,
2013-09-21 22:02:00,42.1,40.2,29.97,NE,52,4.0,4.0,93,0.00,CLR,BKN,0.00,0.0,WeatherDisplay:10.37,2013-09-22 03:02:00,
2013-09-21 22:07:00,42.1,41.0,29.97,NE,52,3.5,3.5,96,0.00,CLR,BKN,0.00,0.0,WeatherDisplay:10.37,2013-09-22 03:07:00,
2013-09-21 22:12:00,41.9,39.7,29.97,NE,54,3.5,3.5,92,0.00,CLR,BKN,0.00,0.0,WeatherDisplay:10.37,2013-09-22 03:12:00,
2013-09-21 22:17:00,41.8,39.6,29.97,ENE,63,5.8,5.8,92,0.00,CLR,BKN,0.00,0.0,WeatherDisplay:10.37,2013-09-22 03:17:00,
2013-09-21 22:22:00,41.6,39.4,29.97,ENE,63,4.6,4.6,92,0.00,CLR,BKN,0.00,0.0,WeatherDisplay:10.37,2013-09-22 03:22:00,
2013-09-21 22:27:00,41.5,39.3,29.97,ENE,64,3.5,3.5,92,0.00,CLR,BKN,0.00,0.0,WeatherDisplay:10.37,2013-09-22 03:27:00,
2013-09-21 22:33:00,41.3,39.2,29.98,ENE,64,4.6,4.6,92,0.00,CLR,BKN,0.00,0.0,WeatherDisplay:10.37,2013-09-22 03:33:00,
2013-09-21 22:38:00,41.3,39.2,29.98,ENE,64,4.6,4.6,92,0.00,CLR,BKN,0.00,0.0,WeatherDisplay:10.37,2013-09-22 03:38:00,
2013-09-21 22:43:00,41.2,39.3,29.98,ENE,65,3.5,3.9,93,0.00,CLR,BKN,0.00,0.0,WeatherDisplay:10.37,2013-09-22 03:43:00,
2013-09-21 22:48:00,41.2,39.3,29.98,ENE,69,4.0,4.0,93,0.00,CLR,BKN,0.00,0.0,WeatherDisplay:10.37,2013-09-22 03:48:00,
2013-09-21 22:53:00,41.1,39.2,29.98,ENE,69,3.5,3.5,93,0.00,CLR,BKN,0.00,0.0,WeatherDisplay:10.37,2013-09-22 03:53:00,
2013-09-21 22:58:00,40.9,39.0,29.98,ENE,69,3.5,3.5,93,0.00,CLR,BKN,0.00,0.0,WeatherDisplay:10.37,2013-09-22 03:58:00,
2013-09-21 23:01:00,40.9,39.0,29.97,ENE,69,3.5,3.5,93,0.00,CLR,BKN,0.00,0.0,WeatherDisplay:10.37,2013-09-22 04:01:00,
2013-09-21 23:02:00,40.9,39.0,29.98,ENE,69,3.5,3.5,93,0.00,CLR,BKN,0.00,0.0,WeatherDisplay:10.37,2013-09-22 04:02:00,
2013-09-21 23:05:00,40.9,39.0,29.97,ENE,69,3.5,3.5,93,0.00,CLR,BKN,0.00,0.0,WeatherDisplay:10.37,2013-09-22 04:05:00,
2013-09-21 23:10:00,40.8,38.9,29.98,ENE,69,3.5,3.5,93,0.00,CLR,BKN,0.00,0.0,WeatherDisplay:10.37,2013-09-22 04:10:00,
2013-09-21 23:15:00,40.6,38.7,29.98,ENE,69,3.5,3.5,93,0.00,CLR,BKN,0.00,0.0,WeatherDisplay:10.37,2013-09-22 04:15:00,
2013-09-21 23:20:00,40.6,38.7,29.98,ENE,69,3.5,3.5,93,0.00,CLR,BKN,0.00,0.0,WeatherDisplay:10.37,2013-09-22 04:20:00,
2013-09-21 23:25:00,40.5,38.6,29.98,ENE,69,3.5,3.5,93,0.00,CLR,BKN,0.00,0.0,WeatherDisplay:10.37,2013-09-22 04:25:00,
2013-09-21 23:30:00,40.5,38.6,29.99,ENE,69,3.5,3.5,93,0.00,CLR,BKN,0.00,0.0,WeatherDisplay:10.37,2013-09-22 04:30:00,
2013-09-21 23:36:00,40.5,38.6,29.99,ENE,69,0.0,0.0,93,0.00,CLR,BKN,0.00,0.0,WeatherDisplay:10.37,2013-09-22 04:36:00,
2013-09-21 23:41:00,40.3,38.4,29.99,ENE,69,0.0,0.0,93,0.00,CLR,BKN,0.00,0.0,WeatherDisplay:10.37,2013-09-22 04:41:00,
2013-09-21 23:46:00,40.2,38.3,29.99,ENE,69,0.0,0.0,93,0.00,CLR,BKN,0.00,0.0,WeatherDisplay:10.37,2013-09-22 04:46:00,
2013-09-21 23:51:00,40.1,38.0,29.99,ENE,69,0.0,0.0,92,0.00,CLR,BKN,0.00,0.0,WeatherDisplay:10.37,2013-09-22 04:51:00,
2013-09-21 23:56:00,39.9,37.8,29.99,ENE,69,0.0,0.0,92,0.00,CLR,BKN,0.00,0.0,WeatherDisplay:10.37,2013-09-22 04:56:00,